Simultaneous Nadir Overpasses (SNOs) Predictions

Prediction of SNOs between AQUA and METOP-B Satellite Orbit:

Table of predicted SNOs for the next 14.0 days since TLE Epoch: 8/24/2013
Index Date (AQUA) Time (AQUA) Lat,Lon (AQUA) SZA (AQUA ) Date (METOP-B) Time (METOP-B) Lat,Lon (METOP-B) SZA (METOP-B ) Distance(km) Time Diff (sec)
1 08/26/2013 18:48:38 -73.31, 73.17 116.87 08/26/2013 18:47:29 -73.24, 71.44 116.87 55.96 69
2 08/26/2013 19:38:13 73.76,-120.15 63.63 08/26/2013 19:37:57 73.75,-120.07 63.62 2.71 16
3 08/26/2013 20:27:40 -73.83, 47.34 116.29 08/26/2013 20:28:38 -73.82, 47.42 116.31 2.97 58
4 08/29/2013 14:22:56 -73.67, 138.86 115.50 08/29/2013 14:21:43 -73.62, 138.70 115.53 7.50 73
5 08/29/2013 15:12:25 73.76, -53.70 64.61 08/29/2013 15:12:20 73.73, -53.71 64.59 3.26 5
6 08/29/2013 16:01:52 -73.83, 113.80 115.31 08/29/2013 16:03:01 -73.80, 113.78 115.34 3.17 69
7 09/01/2013 09:57:08 -73.69,-154.73 114.47 09/01/2013 09:56:04 -73.70,-154.72 114.46 0.53 64
8 09/01/2013 10:46:36 73.73, 12.81 65.59 09/01/2013 10:46:42 73.76, 12.76 65.62 3.03 6
9 09/01/2013 11:36:08 -74.06, 179.74 114.06 09/01/2013 11:37:19 -74.02,-179.28 114.13 30.16 71
10 09/04/2013 05:31:19 -73.69, -88.27 113.45 09/04/2013 05:30:26 -73.71, -88.27 113.42 3.15 53
11 09/04/2013 06:20:48 73.79, 79.15 66.67 09/04/2013 06:21:04 73.78, 79.21 66.66 2.12 16
12 09/04/2013 07:10:27 -74.46,-114.76 112.60 09/04/2013 07:11:33 -74.43,-111.84 112.71 87.15 66
13 09/07/2013 01:05:29 -73.71, -21.86 112.39 09/07/2013 01:04:47 -73.73, -21.83 112.36 2.47 42
14 09/07/2013 01:54:57 73.76, 145.66 67.68 09/07/2013 01:55:25 73.79, 145.65 67.71 3.70 28




NCC Satellite Simultaneous Nadir Overpasses (SNOs) Prediction Service
